Location: Gleizolles
(44.4833°N, 6.7667°E)
Time: 12:10:58
(UTC+00:00)

Tiros 1 - Visible Passes

Search period start: 25 June 2024 00:00
Search period end: 05 July 2024 00:00
Orbit: 624 x 657 km, 48.4° (Epoch: 25 June)

Date Brightness Start Highest point End Pass type
(mag) Time Alt. Az. Time Alt. Az. Time Alt. Az.
25 Jun 7.9 01:36:56 10° WNW 01:41:27 52° N 01:46:00 10° E visible
25 Jun 9.0 21:01:38 13° ESE 21:01:38 13° ESE 21:02:28 10° E visible
25 Jun 6.9 22:38:55 33° SW 22:40:51 71° SSE 22:45:27 10° ENE visible
26 Jun 7.8 00:18:33 10° W 00:23:04 55° N 00:27:37 10° ENE visible
26 Jun 7.6 02:00:57 10° WNW 02:05:33 61° NNE 02:10:10 10° E visible
26 Jun 7.6 21:18:48 10° SSW 21:22:57 35° SE 21:27:06 10° ENE visible
26 Jun 7.2 23:00:11 10° WSW 23:04:47 75° NNW 23:09:24 10° ENE visible
27 Jun 7.9 00:42:41 10° WNW 00:47:11 51° N 00:51:43 10° ENE visible
27 Jun 7.2 02:24:54 10° WNW 02:29:33 85° NNE 02:34:13 10° ESE visible
27 Jun 8.6 20:02:37 10° S 20:05:17 15° SE 20:07:57 10° E visible
27 Jun 7.0 21:42:07 10° SW 21:46:40 64° SSE 21:51:13 10° ENE visible
27 Jun 7.7 23:24:17 10° W 23:28:49 57° N 23:33:22 10° ENE visible
28 Jun 7.7 01:06:44 10° WNW 01:11:17 58° N 01:15:52 10° E visible
28 Jun 7.1 02:48:51 10° WNW 02:53:25 59° SSW 02:57:59 10° SE visible
28 Jun 7.8 20:24:46 10° SSW 20:28:47 30° SE 20:32:48 10° E visible
28 Jun 7.1 22:05:57 10° WSW 22:10:32 81° NNW 22:15:09 10° ENE visible
28 Jun 7.9 23:48:25 10° WNW 23:52:55 51° N 23:57:26 10° ENE visible
29 Jun 7.2 01:30:41 10° WNW 01:35:18 79° NNE 01:39:58 10° ESE visible
29 Jun 7.1 20:47:58 10° SW 20:52:27 57° SSE 20:56:58 10° ENE visible
29 Jun 7.6 22:30:02 10° W 22:34:33 59° NNW 22:39:07 10° ENE visible
30 Jun 7.7 00:12:29 10° WNW 00:17:01 56° N 00:21:35 10° E visible
30 Jun 7.0 01:54:37 10° WNW 01:59:12 66° SSW 02:03:48 10° SE visible
30 Jun 7.1 21:11:43 10° WSW 21:16:18 87° NNW 21:20:55 10° ENE visible
30 Jun 7.9 22:54:09 10° W 22:58:39 51° N 23:03:09 10° ENE visible
01 Jul 7.2 00:36:27 10° WNW 00:41:03 73° NNE 00:45:41 10° ESE visible
01 Jul 7.6 02:18:42 10° WNW 02:22:56 36° SW 02:27:10 10° SSE visible
01 Jul 7.3 19:53:49 10° SW 19:58:15 50° SSE 20:02:42 10° ENE visible
01 Jul 7.6 21:35:44 10° W 21:40:18 62° NNW 21:44:52 10° ENE visible
01 Jul 7.8 23:18:14 10° WNW 23:22:45 54° N 23:27:17 10° E visible
02 Jul 6.9 01:00:23 10° WNW 01:04:58 74° SSW 01:09:35 10° ESE visible
02 Jul 8.4 02:43:15 10° W 02:46:29 19° SW 02:49:43 10° S visible
02 Jul 7.1 20:17:28 10° WSW 20:22:04 86° SSE 20:26:41 10° ENE visible
02 Jul 7.9 21:59:53 10° W 22:04:22 52° N 22:08:53 10° ENE visible
02 Jul 7.3 23:42:12 10° WNW 23:46:48 68° NNE 23:51:25 10° E visible
03 Jul 7.4 01:24:24 10° WNW 01:28:43 41° SW 01:31:19 21° SSE visible
03 Jul 7.5 20:41:27 10° W 20:46:02 65° NNW 20:50:36 10° ENE visible
03 Jul 7.8 22:23:58 10° WNW 22:28:29 53° N 22:32:59 10° E visible
04 Jul 6.9 00:06:08 10° WNW 00:10:44 81° SSW 00:11:57 49° SE visible
04 Jul 9.2 01:48:49 10° W 01:49:19 12° W 01:49:19 12° W visible
04 Jul 7.9 21:05:35 10° W 21:10:05 53° N 21:14:36 10° ENE visible
04 Jul 7.4 22:47:58 10° WNW 22:52:32 64° NNE 22:55:37 20° E visible
